User: anonymous   Login
Location: Unspecified
(0.0000°N, 0.0000°E)
Time: 15:34:49
(UTC+02:00)
Language:

ISS - Orbit

View from above orbital plane
View from above orbital plane
View from above satellite
View from above satellite

Ground track
Ground track

The orbit data is extracted from the following two-line orbital elements,

1 25544U 98067A   18171.54353484  .00016717  00000-0  10270-3 0  9023
2 25544  51.6387   1.9825 0003002 218.0774 142.0167 15.54192336 39036
Epoch (UTC): 20 June 2018 13:02:41
Eccentricity: 0.0003002
inclination: 51.6387°
perigee height: 402 km
apogee height: 406 km
right ascension of ascending node: 1.9825°
argument of perigee: 218.0774°
revolutions per day: 15.54192336
mean anomaly at epoch: 142.0167°
orbit number at epoch: 3903

The dashed part of the orbit path shows where the satellite is in the earth's shadow,  

DLR